Regional Weather Roundup
Issued by NWS Spokane, WA

Current Version | Previous Version | Text Only | Print | Product List | Glossary On
Versions: 1 2 3 4 5 6 7 8 9 10 11 12 13 14 15 16 17 18 19 20 21 22 23 24 25 26 27 28 29 30 31 32 33 34 35 36 37 38 39 40 41 42 43 44 45 46 47 48 49 50
000
NZUS01 KOTX 220925
RWROTX

Eastern Washington/Northern Idaho Roundup
National Weather Service, Spokane WA
200 AM PDT SUN APR 22 2018

Note: "fair" indicated few or no clouds below 12,000 feet with no
significant weather and/or obstructions to visibility.

...Northeast Washington and Northern Idaho Panhandle...

CITY           SKY/WX    TMP DP  RH WIND       PRES   REMARKS
Spokane Intl   PTCLDY    37  26  64 SW8       30.21S
Spokane Downto CLEAR     37  27  67 CALM      30.23S
Coeur d Alene  CLEAR     38  27  64 SW3       30.23R
Deer Park      PTCLDY    29  24  82 SE5       30.21S WCI  24
Bonners Ferry  FAIR      39  27  60 W5        30.18R

...Southeast Washington and southern Idaho Panhandle...

CITY           SKY/WX    TMP DP  RH WIND       PRES   REMARKS
Walla Walla    CLEAR     37  30  75 E5        30.29S
Pullman/Moscow CLEAR     35  25  66 CALM      30.28R
Lewiston       CLEAR     43  28  55 S5        30.27F
Lowell           N/A     39  34  82 NW5       30.29S
Grangeville    FAIR      36  25  64 CALM      30.25S

...Columbia Basin...

CITY           SKY/WX    TMP DP  RH WIND       PRES   REMARKS
Ephrata        PTCLDY    43  23  45 NW8       30.25S
Moses Lake     PTCLDY    42  26  53 SW7       30.28R
Pasco          CLEAR     42  30  62 CALM      30.32S
Richland       SUNNY     38  31  76 CALM      30.31F
Hermiston      CLEAR     35  30  82 S6        30.30F
Pendleton      CLEAR     37  28  70 SE6       30.29S

...East Slopes Cascades...

CITY           SKY/WX    TMP DP  RH WIND       PRES   REMARKS
The Dalles     CLEAR     46  34  62 SW5       30.32S
Yakima         CLEAR     42  30  62 NW6       30.31S
Ellensburg     CLEAR     39  29  67 NW13      30.28F
Wenatchee      CLEAR     40  24  53 N6        30.29S
Winthrop       CLOUDY    35  24  64 NW3       30.31R
Omak           CLEAR     37  26  64 NW8       30.28R
Sunnyside      SUNNY     31  28  89 NE3       30.31S

...Southern British Columbia...

CITY           SKY/WX    TMP DP  RH WIND       PRES   REMARKS
Penticton      MOCLDY    41  27  56 N5        30.31S
Cranbrook      CLEAR     36  27  69 S6        30.14S
Osoyoos          N/A     48  23  37 N5          N/A
Creston          N/A     37  32  81 E3          N/A

...Western Montana...

CITY           SKY/WX    TMP DP  RH WIND       PRES   REMARKS
Kalispell      MOSUNNY   39  25  57 S9        30.16S
Missoula       CLEAR     37  23  56 NW6       30.21S

...Neighboring Cities...

CITY           SKY/WX    TMP DP  RH WIND       PRES   REMARKS
Seattle        MOCLDY    46  37  71 NE8       30.39F
Portland       PTCLDY    46  39  76 NW12      30.38S
Boise          CLEAR     46  30  53 W7        30.15R
Great Falls    CLOUDY    40  24  53 SW6       30.14R
Calgary        PTCLDY    41  21  45 W18G31    30.02S



USA.gov is the U.S. government's official web portal to all federal, state and local government web resources and services.